Location: Gleizolles
(44.4833°N, 6.7667°E)
Time: 00:52:00
(UTC+00:00)

S-56A Canister/Altair - Pass Details

Date: 27 June 2024
Orbit: 638 x 2488 km, 38.9° (Epoch: 24 July)

Event Time Altitude Azimuth Distance (km) Brightness Sun altitude
Rises 20:35:48 0° 256° (WSW) 3,942 11.6 -10.7°
Reaches altitude 10° 20:38:10 10° 253° (WSW) 3,185 11.0 -11.0°
Maximum altitude 20:46:14 64° 174° (S) 1,774 9.1 -11.9°
Drops below altitude 10° 20:58:23 10° 97° (E) 4,668 11.1 -13.2°
Sets 21:02:36 0° 95° (E) 5,873 11.6 -13.7°
